Location: Jaite
(41.2884°N, 81.5737°W)
Time: 18:42:42
(UTC+00:00)

Cosmos 1602 Rocket - Pass Details

Date: 18 January 2020
Orbit: 603 x 633 km, 82.5° (Epoch: 24 February)

Event Time Altitude Azimuth Distance (km) Brightness Sun altitude
Rises 23:59:40 0° 199° (SSW) 2,896 7.4 -17.7°
Reaches altitude 10° 00:01:57 10° 204° (SSW) 1,990 6.6 -18.1°
Maximum altitude 00:06:15 51° 281° (W) 783 4.4 -18.9°
Drops below altitude 10° 00:10:32 10° 357° (N) 1,986 6.1 -19.7°
Sets 00:12:49 0° 3° (N) 2,891 6.9 -20.1°
